Regional Weather Roundup
Issued by NWS Sterling, VA

Current Version | Previous Version | Text Only | Print | Product List | Glossary On
Versions: 1 2 3 4 5 6 7 8 9 10 11 12 13 14 15 16 17 18 19 20 21 22 23 24 25 26 27 28 29 30 31 32 33 34 35 36 37 38 39 40 41 42 43 44 45 46 47 48 49
000
ASUS41 KLWX 020410
RWRLWX

REGIONAL WEATHER ROUNDUP
NATIONAL WEATHER SERVICE BALTIMORE MD/WASHINGTON DC
1200 AM EDT THU OCT 02 2014

Note: "FAIR" indicates few or no clouds below 12,000 feet
with no significant weather and/or obstructions to visibility.
 TC=TEMPERATURE CELSIUS

 * =Non NWS site. Station does not report precipitation (e.g. rain,
    snow, etc.), thunder, or fog.

DCZ001-MDZ009-015-VAZ040>042-051-053>054-020500-
WASHINGTON METRO

CITY           SKY/WX    TMP DP  RH WIND       PRES   REMARKS
WASHINGTON NAT PTCLDY    67  60  78 CALM      30.07S
DULLES         PTCLDY    59  58  96 NW5       30.08S
ANDREWS AFB    CLEAR     59  59 100 NW2       30.07R FOG
QUANTICO       MOCLDY    63  60  90 NW5       30.07F
COLLEGE PARK*  CLEAR     59  59 100 CALM      30.07S
LEESBURG*      PTCLDY    61  61 100 CALM      30.08S FOG
MANASSAS*      PTCLDY    61  61 100 CALM      30.07S
GAITHERSBURG*  CLEAR     55  55 100 CALM      30.11S

$$

MDZ006>007-011-014-020500-
BALTIMORE METRO

CITY           SKY/WX    TMP DP  RH WIND       PRES   REMARKS
BWI AIRPORT    PTCLDY    61  58  90 CALM      30.08R
MD SCIENCE CTR   N/A     66  60  81 MISG      30.08S
MARTIN STATE   PTCLDY    64  63  94 CALM      30.09S
ANNAPOLIS      PTCLDY    66  60  81 E7        30.07R
FORT MEADE*    MOCLDY    55  54  94 CALM      30.10R

$$

MDZ012-015-019>023-020500-
MARYLAND EASTERN SHORE

CITY           SKY/WX    TMP DP  RH WIND       PRES   REMARKS
OCEAN CITY     CLEAR     60  58  92 N5        30.05S
SALISBURY      CLEAR     60  56  86 CALM      30.06S FOG
BAY BRIDGE AP*   N/A     64  59  82 E6        30.07S
CAMBRIDGE*     CLEAR     59  55  88 CALM      30.07R
EASTON*        MOCLDY    63  63 100 CALM      30.11R

$$

MDZ017>025-020500-
SOUTHERN MARYLAND

CITY           SKY/WX    TMP DP  RH WIND       PRES   REMARKS
PATUXENT RIVER CLEAR     57  55  93 SW3       30.06S
ST INIGOES     CLEAR     58  55  90 CALM      30.05S
LEONARDTOWN*   CLEAR     57  55  94 CALM      30.08S

$$

MDZ003>005-020500-
NORTH CENTRAL MARYLAND

CITY           SKY/WX    TMP DP  RH WIND       PRES   REMARKS
FREDERICK*     FOG       55  55 100 CALM      30.11R VSB 1/4
HAGERSTOWN APT CLEAR     60  56  86 NE3       30.08S FOG
WESTMINSTER*   PTCLDY    57  55  94 CALM      30.09S FOG

$$

MDZ501>502-020500-
WESTERN MARYLAND

CITY           SKY/WX    TMP DP  RH WIND       PRES   REMARKS
OAKLAND*       CLOUDY    54 N/A N/A SE6       30.12S FOG
CUMBERLAND*    PTCLDY    57  55  94 CALM      30.12S

$$

VAZ025>031-020500-
SHENANDOAH VALLEY

CITY           SKY/WX    TMP DP  RH WIND       PRES   REMARKS
WINCHESTER*    FOG       57  55  94 CALM      30.08S VSB 1
STAUNTON*      CLOUDY    64  61  88 CALM      30.11S

$$

WVZ021-048>050-054>055-020500-
EASTERN WEST VIRGINIA PANHANDLE

CITY           SKY/WX    TMP DP  RH WIND       PRES   REMARKS
MARTINSBURG    FOG       58  54  86 CALM      30.09R VSB 1
PETERSBURG*    MOCLDY   N/A N/A N/A CALM      30.09S HAZE

$$

VAZ036>039-050-020500-
CENTRAL FOOTHILLS

CITY           SKY/WX    TMP DP  RH WIND       PRES   REMARKS
CHARLOTTESVILL LGT RAIN  65  63  93 CALM      30.08R
ORANGE*        CLOUDY    64  61  88 CALM      30.09R

$$

VAZ055>057-020500-
NORTH AND CENTRAL PIEDMONT

CITY           SKY/WX    TMP DP  RH WIND       PRES   REMARKS
FREDERICKSBRG* PTCLDY    63  63 100 CALM      30.06S
STAFFORD*      PTCLDY    60  60 100 CALM      30.11S FOG

$$

NCZ024-NYZ072-PAZ021-071-VAZ022-071-020500-
OTHER REGIONAL OBSERVATIONS

CITY           SKY/WX    TMP DP  RH WIND       PRES   REMARKS
NEW YORK CITY  CLOUDY    61  56  83 NE5       30.11R
PHILADELPHIA   MOCLDY    65  58  78 E5        30.07S
PITTSBURGH     PTCLDY    55  54  96 CALM      30.06S FOG
ROANOKE        CLEAR     62  60  93 W3        30.09S
RICHMOND       CLOUDY    67  62  84 CALM      30.06S
RALEIGH        PTCLDY    64  62  93 CALM      30.06R

$$

ANZ530>537-020500-
MARINE OBSERVATIONS

STATION/POSITION TIME  TEMP    WIND        PRES
                       AIR SEA DIR/SP/G
                 (UTC) (F)     (DEG/KT/KT) (MB)
THOMAS PT LIGHT  0400   66 72  110/ 11/ 13 1019.1R
BALT KEY BRIDGE  0400   67      60/  7/  8 1018.2R
COVE POINT       0400   68     110/  5/  7 1017.7S
LEWISETTA        0400   66 72  240/  4/  5 1017.4S
SOLOMONS ISLAND  0400      73                N/A
PINEY POINT      0400           70/  3/  3   N/A

$$




USA.gov is the U.S. government's official web portal to all federal, state and local government web resources and services.